Weather History for Broken Bow, NE

Change the Weather History Date:

Saturday, March 9, 2013

  Actual Average Record
Temperature  
Mean Temperature 38 °F 35 °F  
Max Temperature 48 °F 49 °F 72 °F (1967)
Min Temperature 28 °F 22 °F -10 °F (1912)
Degree Days  
Heating Degree Days 27 30  
Month to date heating degree days 298 282  
Cooling Degree Days 0 0  
Month to date cooling degree days 0 0  
Year to date cooling degree days 0 0  
Moisture  
Dew Point 36 °F    
Average Humidity 93    
Maximum Humidity 100    
Minimum Humidity 85    
Precipitation  
Precipitation 0.05 in 0.03 in 0.67 in (1992)
Sea Level Pressure  
Sea Level Pressure 29.71 in    
Wind  
Wind Speed 21 mph (NNE)    
Max Wind Speed 37 mph    
Max Gust Speed 45 mph    
Visibility 3 miles    
Events Fog , Rain , Snow    
T = Trace of Precipitation, MM = Missing Value Source: NWS Daily Summary

Daily Weather History Graph

Daily Weather History Graph

Search for Another Location

Airport:

Trip Planner

Search our weather history database for the weather conditions in past years. The results will help you decide how hot, cold, wet, or windy it might be!

Date:

Astronomy

Mar. 09, 2013 Rise Set
Actual Time 6:59 AM CST 6:38 PM CST
Civil Twilight 6:32 AM CST 7:06 PM CST
Nautical Twilight 6:00 AM CST 7:38 PM CST
Astronomical Twilight 5:27 AM CST 8:10 PM CST
Moon 5:26 AM CST (3/9) 4:41 PM CST (3/9)
Length of Visible Light 12h 34m
Length of Day
11h 39m
Waning Crescent, 5% of the Moon is Illuminated
Mar 9
Waning Crescent
Mar 11
New
Mar 19
First Quarter
Mar 27
Full
Apr 2
Last Quarter

Hourly Weather History & Observations

Time (CST) Temp. Windchill Dew Point Humidity Pressure Visibility Wind Dir Wind Speed Gust Speed Precip Events Conditions
12:12 AM 48.2 °F - 46.4 °F 93% 29.73 in 4.0 mi SE 11.5 mph - N/A   Overcast
12:45 AM 46.4 °F 42.4 °F 46.4 °F 100% 29.71 in 2.5 mi SE 8.1 mph - N/A   Overcast
12:53 AM 46.9 °F - 46.0 °F 97% 29.73 in 2.5 mi SE 9.2 mph - N/A   Overcast
1:04 AM 46.4 °F 41.9 °F 46.4 °F 100% 29.71 in 1.2 mi SE 9.2 mph - N/A   Overcast
1:46 AM 46.4 °F 41.1 °F 46.4 °F 100% 29.70 in 2.5 mi SSE 11.5 mph 21.9 mph 0.00 in   Overcast
1:53 AM 48.0 °F - 46.9 °F 96% 29.71 in 3.0 mi SSE 15.0 mph 24.2 mph 0.00 in   Overcast
2:27 AM 46.4 °F 40.4 °F 46.4 °F 100% 29.69 in 2.0 mi SSE 13.8 mph 24.2 mph N/A   Overcast
2:38 AM 46.4 °F 40.4 °F 46.4 °F 100% 29.68 in 1.5 mi SSE 13.8 mph 25.3 mph 0.01 in Rain Light Rain
2:53 AM 46.0 °F 39.9 °F 46.0 °F 100% 29.69 in 1.8 mi SSE 13.8 mph 23.0 mph 0.01 in   Overcast
3:31 AM 46.4 °F 41.5 °F 46.4 °F 100% 29.65 in 1.0 mi SE 10.4 mph 20.7 mph N/A   Overcast
3:53 AM 46.0 °F 41.9 °F 46.0 °F 100% 29.64 in 0.5 mi ESE 8.1 mph - 0.00 in Fog , Rain Light Rain
4:53 AM 45.0 °F 39.7 °F 45.0 °F 100% 29.62 in 0.2 mi SE 10.4 mph - 0.01 in Fog , Rain Light Rain
5:53 AM 45.0 °F 39.7 °F 45.0 °F 100% 29.60 in 0.2 mi SE 10.4 mph - 0.00 in Fog Fog
6:53 AM 45.0 °F 42.6 °F 45.0 °F 100% 29.59 in 0.5 mi East 4.6 mph - 0.01 in Fog Fog
7:09 AM 46.4 °F 43.5 °F 46.4 °F 100% 29.58 in 1.2 mi ESE 5.8 mph - N/A   Overcast
7:15 AM 44.6 °F 42.2 °F 44.6 °F 100% 29.58 in 0.8 mi East 4.6 mph - N/A   Overcast
7:53 AM 46.0 °F 43.1 °F 46.0 °F 100% 29.59 in 0.5 mi East 5.8 mph - N/A Fog Fog
8:53 AM 44.1 °F 36.8 °F 44.1 °F 100% 29.58 in 0.5 mi North 16.1 mph - 0.00 in Fog , Rain Light Rain
9:14 AM 39.2 °F 30.8 °F 39.2 °F 100% 29.58 in 1.0 mi North 15.0 mph - 0.00 in Rain Light Rain
9:37 AM 37.4 °F 27.8 °F 37.4 °F 100% 29.58 in 1.2 mi North 17.3 mph - 0.01 in Rain Light Rain
9:53 AM 37.0 °F 27.0 °F 37.0 °F 100% 29.61 in 1.5 mi North 18.4 mph - 0.01 in Rain Light Rain
10:37 AM 35.6 °F 24.2 °F 35.6 °F 100% 29.58 in 2.0 mi North 21.9 mph - 0.00 in   Overcast
10:51 AM 35.6 °F 24.2 °F 35.6 °F 100% 29.59 in 3.0 mi North 21.9 mph 28.8 mph 0.00 in Rain Light Rain
10:53 AM 35.1 °F 22.5 °F 35.1 °F 100% 29.61 in 4.0 mi North 26.5 mph 31.1 mph 0.00 in Rain Light Rain
11:53 AM 35.1 °F 22.5 °F 35.1 °F 100% 29.64 in 4.0 mi North 26.5 mph 33.4 mph 0.00 in   Overcast
12:53 PM 33.1 °F 18.9 °F 33.1 °F 100% 29.65 in 6.0 mi North 31.1 mph 36.8 mph 0.00 in Rain Light Rain
1:26 PM 33.8 °F 20.1 °F 33.8 °F 100% 29.61 in 9.0 mi North 29.9 mph 41.4 mph 0.00 in   Overcast
1:53 PM 32.0 °F 17.9 °F 32.0 °F 100% 29.65 in 8.0 mi North 28.8 mph 38.0 mph 0.00 in   Overcast
2:53 PM 30.0 °F 16.0 °F 30.0 °F 100% 29.68 in 7.0 mi North 25.3 mph 35.7 mph N/A   Overcast
3:53 PM 28.9 °F 13.2 °F 28.9 °F 100% 29.70 in 8.0 mi North 31.1 mph 41.4 mph N/A   Overcast
4:53 PM 28.9 °F 13.5 °F 28.0 °F 96% 29.72 in 4.0 mi North 29.9 mph 36.8 mph N/A   Overcast
5:36 PM 28.4 °F 12.7 °F 26.6 °F 93% 29.69 in 8.0 mi North 29.9 mph 42.6 mph N/A   Overcast
5:53 PM 28.9 °F 13.5 °F 27.0 °F 92% 29.75 in 8.0 mi North 29.9 mph 36.8 mph N/A   Overcast
6:53 PM 28.0 °F 13.6 °F 25.0 °F 88% 29.79 in 9.0 mi North 24.2 mph 42.6 mph N/A   Overcast
7:53 PM 28.0 °F 12.5 °F 25.0 °F 88% 29.83 in 4.0 mi North 28.8 mph 36.8 mph 0.00 in Snow Light Snow
8:17 PM 28.4 °F 13.5 °F 24.8 °F 86% 29.81 in 2.0 mi North 26.5 mph 42.6 mph 0.00 in Snow Light Snow
8:36 PM 28.4 °F 12.5 °F 24.8 °F 86% 29.81 in 1.5 mi North 31.1 mph 40.3 mph 0.00 in Snow Light Snow
8:53 PM 28.0 °F 12.0 °F 25.0 °F 88% 29.86 in 1.8 mi North 31.1 mph 39.1 mph 0.00 in Snow Light Snow
9:40 PM 28.4 °F 13.8 °F 26.6 °F 93% 29.84 in 2.0 mi North 25.3 mph 41.4 mph 0.00 in Snow Light Snow
9:53 PM 28.0 °F 12.5 °F 25.0 °F 88% 29.90 in 2.5 mi North 28.8 mph 39.1 mph 0.00 in Snow Light Snow
10:00 PM 28.4 °F 13.3 °F 24.8 °F 86% 29.84 in 3.0 mi North 27.6 mph 39.1 mph 0.00 in Snow Light Snow
10:31 PM 28.4 °F 13.0 °F 26.6 °F 93% 29.84 in 2.5 mi North 28.8 mph 38.0 mph 0.00 in Snow Light Snow
10:45 PM 28.4 °F 12.7 °F 26.6 °F 93% 29.83 in 1.5 mi North 29.9 mph 42.6 mph 0.00 in Snow Light Snow
10:53 PM 28.9 °F 13.2 °F 26.1 °F 89% 29.90 in 1.5 mi North 31.1 mph 43.7 mph 0.00 in Snow Light Snow
11:22 PM 28.4 °F 12.3 °F 26.6 °F 93% 29.84 in 1.2 mi North 32.2 mph 44.9 mph 0.00 in Snow Light Snow
11:39 PM 28.4 °F 13.3 °F 26.6 °F 93% 29.86 in 2.0 mi North 27.6 mph 40.3 mph 0.01 in Snow Light Snow
11:53 PM 28.9 °F 13.2 °F 27.0 °F 92% 29.93 in 2.0 mi North 31.1 mph 39.1 mph 0.01 in Snow Light Snow